#timestamp,LO_Frequency,Hit,StdDev 
1645380015.8,286047002.4,N
1645380035.6,286047000.1,N
1645380055.5,286047000.6,N
1645380075.3,286047001.0,N
1645380095.1,286047000.3,N
1645380115.9,286046998.5,N
1645380135.7,286046998.9,N
1645380155.6,286046999.2,N
1645380175.4,286046998.3,N
1645380195.2,286046998.5,N
1645380215.1,286046999.3,N
1645380216.0,286046999.3,N
1645380235.8,286046998.4,N
1645380255.7,286046998.9,N
1645380275.5,286046998.3,N
1645380295.3,286046998.4,N
1645380315.2,286046999.4,N
1645380335.0,286046996.9,N
1645380335.9,286046996.9,N
1645380355.8,286046996.5,N
1645380375.6,286046999.6,N
1645380395.4,286046997.3,N
1645380415.3,286046998.7,N
1645380435.1,286046996.8,N
1645380455.9,286046997.3,N
1645380475.7,286046996.5,N
1645380495.5,286046997.0,N
1645380515.4,286046999.6,N
1645380535.2,286046999.4,N
1645380555.0,286046996.8,N
1645380555.9,286046996.8,N
1645380575.8,286046995.4,Y
1645380595.6,286046999.3,P
1645380615.5,286046996.8,P
1645380635.3,286046999.1,N
1645380655.1,286046998.9,N
1645380675.9,286046999.3,N
1645380695.7,286046999.3,N
1645380715.5,286046999.1,N
1645380735.4,286046998.9,N
1645380755.2,286046998.9,N
1645380775.1,286046998.4,N
1645380776.0,286046998.4,N
1645380795.8,286046998.6,N
1645380815.6,286046998.8,N
1645380835.5,286047001.2,N
1645380855.3,286047001.0,N
1645380875.1,286046998.8,N
1645380895.9,286046998.4,N
1645380915.7,286046998.2,N
1645380935.6,286046998.9,N
1645380955.4,286046998.4,N
1645380975.2,286047001.0,N
1645380995.1,286047000.7,N
1645380996.0,286047000.7,N
1645381015.8,286046998.3,N
1645381035.7,286047001.1,N
1645381055.5,286046999.3,N
1645381075.3,286047001.1,N
1645381095.2,286047000.9,N
1645381115.0,286047000.5,N
1645381115.9,286047000.5,N
1645381135.8,286047001.0,N
1645381155.6,286046998.7,N
1645381175.4,286046998.6,N
1645381195.3,286047001.2,N
1645381215.1,286047001.0,N
1645381235.8,286047001.2,N
1645381255.7,286046999.7,N
1645381275.5,286047002.7,N
1645381295.4,286047002.3,N
1645381315.2,286047001.9,N
1645381335.0,286047002.6,N
1645381335.9,286047002.6,N
1645381355.8,286047002.0,N
1645381375.6,286047002.8,N
1645381395.4,286047001.9,N
1645381415.3,286047001.3,N
1645381435.1,286047001.7,N
1645381455.9,286047004.3,Y
1645381475.7,286047001.4,P
1645381495.5,286047001.9,P
1645381515.4,286047001.8,P
1645381535.2,286047003.5,Y
1645381555.1,286047002.3,P
1645381556.0,286047002.3,P
1645381575.8,286046996.5,P
1645381595.6,286046999.1,N
1645381615.5,286046998.3,N
1645381635.3,286047000.4,N
1645381655.1,286047002.4,N
1645381675.9,286047002.8,N
1645381695.7,286047000.2,N
1645381715.6,286047002.8,N
1645381735.4,286047001.6,N
1645381755.2,286047002.1,N
1645381775.1,286047001.4,N
1645381776.0,286047001.4,N
1645381795.8,286047001.3,N
1645381815.6,286047002.4,N
1645381835.5,286047002.5,N
1645381855.3,286047001.5,N
1645381875.2,286047001.6,N
1645381895.9,286047001.8,N
1645381915.7,286047002.2,N
1645381935.6,286047002.2,N
1645381955.4,286047002.5,N
1645381975.3,286047001.9,N
1645381995.1,286047002.6,N
1645381996.0,286047002.6,N
1645382015.8,286047002.0,N
1645382035.7,286047001.7,N
1645382055.5,286047001.5,N
1645382075.3,286047002.2,N
1645382095.2,286047001.3,N
1645382115.0,286047003.8,N
1645382115.9,286047003.8,N
1645382135.8,286047003.1,N
1645382155.6,286047004.0,Y
1645382175.4,286047002.8,P
1645382195.3,286047002.5,P
1645382215.1,286047002.7,P
1645382235.8,286047000.1,N
1645382255.7,286047002.7,N
1645382275.5,286047002.1,N
1645382295.4,286047002.4,N
1645382315.2,286047001.9,N
1645382335.0,286047001.9,N
1645382335.9,286047001.9,N
1645382355.8,286047001.3,N
1645382375.6,286047003.2,Y
1645382395.5,286047002.6,P
1645382415.3,286047002.7,P
1645382435.1,286047002.3,P
1645382455.9,286046999.9,N
1645382475.7,286047000.8,N
1645382495.5,286046998.1,N
1645382515.4,286047000.8,N
1645382535.2,286047001.2,N
1645382555.1,286047000.8,N
1645382556.0,286047000.8,N
1645382575.8,286046998.7,N
1645382595.6,286046998.9,N
1645382615.5,286046999.6,N
1645382635.3,286046998.9,N
1645382655.1,286046998.3,N
1645382675.9,286046999.7,N
1645382695.7,286047000.0,N
1645382715.6,286047000.6,N
1645382735.4,286047000.7,N
1645382755.2,286046998.4,N
1645382775.1,286046996.7,N
1645382776.0,286046996.7,N
1645382795.8,286046996.5,N
1645382815.7,286046996.8,N
1645382835.5,286046997.1,N
1645382855.3,286046996.8,N
1645382875.2,286046999.6,N
1645382895.0,286046998.9,N
1645382895.9,286046998.9,N
1645382915.8,286046998.3,N
1645382935.6,286046999.4,N
1645382955.4,286046998.3,N
1645382975.3,286046998.7,N
1645382995.1,286046998.5,N
1645383015.8,286046998.4,N
1645383035.7,286046998.6,N
1645383055.5,286046998.4,N
1645383075.4,286047001.2,N
1645383095.2,286046999.3,N
1645383115.0,286046998.8,N
1645383115.9,286046998.8,N
1645383135.8,286046998.1,N
1645383155.6,286047000.3,N
1645383175.4,286047001.2,N
1645383195.3,286046998.2,N
1645383215.1,286046998.7,N
1645383235.9,286046999.1,N
1645383255.7,286046998.9,N
1645383275.5,286046997.7,N
1645383295.4,286046996.5,Y
1645383315.2,286046998.2,P
1645383335.0,286046998.8,P
1645383335.9,286046998.8,P
1645383355.8,286046998.8,Y
1645383375.6,286047001.2,P
1645383395.5,286047000.4,N
1645383415.3,286047000.4,N
1645383435.1,286047000.9,N
1645383455.9,286047000.0,N
1645383475.7,286047002.5,N
1645383495.6,286047000.3,N
1645383515.4,286046999.8,N
1645383535.2,286047002.8,N
1645383555.1,286047002.5,N
1645383556.0,286047002.5,N
1645383575.8,286047002.7,N
1645383595.6,286047002.6,N
